Hourly Data Report for June 20, 2017

QUALICUM BEACH AIRPORT
BRITISH COLUMBIA

49°20'14.000" N
124°23'38.000" W
58.20 m
1026562
71766
VOQ

Download Data

Hourly Data (June 2017)
Hourly Data Report for June 20, 2017
TIME
LST
Temp Definition
°C
Dew Point Definition
°C
Rel Hum Definition
%
Precip. Amount Definition
mm

Wind Dir Definition
10's deg

Wind Spd Definition
km/h
Visibility Definition
km
Stn Press Definition
kPa
Hmdx Definition


Wind Chill Definition


Weather Definition


00:00 14.8 13.9 94 0.0 0 1   100.80     LegendNANA
01:00 14.6 14.2 97 0.2 15 5   100.85     LegendNANA
02:00 15.3 14.5 95 0.0 17 8   100.82     LegendNANA
03:00 15.0 14.4 96 0.0 31 4   100.83     LegendNANA
04:00 14.7 14.2 97 0.0 10 4   100.83     LegendNANA
05:00 14.7 14.3 98 0.0 33 2   100.87     LegendNANA
06:00 15.7 14.9 95 0.0 23 2   100.90     LegendNANA
07:00 15.6 15.0 96 0.5 35 5   100.99     LegendNANA
08:00 14.3 13.6 95 0.0 32 21   101.10     LegendNANA
09:00 15.1 13.1 88 0.0 32 17   101.13     LegendNANA
10:00 15.5 12.1 80 0.0 32 17   101.19     LegendNANA
11:00 16.7 11.1 70 0.0 31 18   101.25     LegendNANA
12:00 18.0 10.7 62 0.0 33 18   101.29     LegendNANA
13:00 18.4 9.8 57 0.0 32 17   101.30     LegendNANA
14:00 19.2 8.7 50 0.0 32 17   101.33     LegendNANA
15:00 19.2 8.3 49 0.0 33 15   101.35     LegendNANA
16:00 19.7 8.7 49 0.0 33 16   101.35     LegendNANA
17:00 20.0 8.3 47 0.0 32 15   101.36     LegendNANA
18:00 19.3 7.9 48 0.0 32 14   101.34     LegendNANA
19:00 18.0 9.7 58 0.0 32 15   101.40     LegendNANA
20:00 16.5 8.9 60 0.0 30 14   101.46     LegendNANA
21:00 16.0 8.3 60 0.0 30 12   101.55     LegendNANA
22:00 15.3 9.7 69 0.0 31 14   101.55     LegendNANA
23:00 14.6 9.4 71 0.0 31 13   101.60     LegendNANA

Notes on Data Quality.

Legend

  • E = Estimated
  • M = Missing
  • NA = Not Available*
  • [empty] = Indicates an unobserved value
Date modified: